Location: Mentone
(34.5413°N, 85.5351°W)
Time: 22:23:46
(UTC-05:00)

Vanguard 3 - All Passes

Search period start: 03 August 2015 00:00
Search period end: 13 August 2015 00:00
Orbit: 508 x 3270 km, 33.3° (Epoch: 02 August)

Date Brightness Start Highest point End Pass type
(mag) Time Alt. Az. Time Alt. Az. Time Alt. Az.
03 Aug - 06:39:49 10° S 06:54:25 28° SE 07:08:21 10° E daylight
03 Aug - 08:51:30 10° SW 09:10:27 57° SSE 09:23:54 10° E daylight
03 Aug - 11:08:18 10° WSW 11:26:06 82° S 11:36:23 10° E daylight
03 Aug - 13:26:49 10° W 13:40:24 79° SSW 13:47:42 10° ESE daylight
03 Aug - 15:44:21 10° W 15:52:26 34° SW 15:57:23 10° SSE daylight
04 Aug - 05:29:10 10° SSE 05:38:51 17° SE 05:50:13 10° ESE visible
04 Aug - 07:36:46 10° SSW 07:54:46 45° SSE 08:09:40 10° E daylight
04 Aug - 09:51:36 10° WSW 10:10:53 73° SSE 10:23:17 10° E daylight
04 Aug - 12:09:50 10° W 12:26:12 85° S 12:35:13 10° E daylight
04 Aug - 14:28:05 10° W 14:39:34 58° SSW 14:45:54 10° SE daylight
04 Aug - 16:46:45 10° WSW 16:50:20 14° SW 16:52:58 10° SSW daylight
05 Aug - 06:23:27 10° SSW 06:39:03 33° SE 06:54:16 10° E daylight
05 Aug - 08:35:41 10° SW 08:55:13 63° SSE 09:09:39 10° E daylight
05 Aug - 10:52:43 10° WSW 11:11:18 84° S 11:22:22 10° E daylight
05 Aug - 13:11:24 10° W 13:25:57 76° SSW 13:33:50 10° ESE daylight
05 Aug - 15:29:25 10° W 15:37:59 31° SW 15:43:15 10° SSE daylight
06 Aug - 05:12:07 10° S 05:23:33 21° SE 05:36:46 10° E visible
06 Aug - 07:20:53 10° SW 07:39:20 50° SSE 07:55:19 10° E daylight
06 Aug - 09:35:58 10° WSW 09:55:48 78° SSE 10:09:06 10° E daylight
06 Aug - 11:54:18 10° W 12:11:33 85° S 12:21:17 10° E daylight
06 Aug - 14:12:46 10° W 14:25:05 53° SSW 14:31:56 10° SE daylight
06 Aug - 16:32:48 10° WSW 16:35:49 12° SW 16:37:58 10° SSW daylight
07 Aug - 04:08:12 10° SE 04:08:22 10° SE 04:11:11 10° SE visible
07 Aug - 06:07:26 10° SSW 06:23:34 37° SE 06:39:55 10° E daylight
07 Aug - 08:20:03 10° SW 08:39:53 68° SSE 08:55:17 10° E daylight
07 Aug - 10:37:10 10° W 10:56:25 86° S 11:08:17 10° E daylight
07 Aug - 12:55:53 10° W 13:11:22 72° SSW 13:19:54 10° ESE daylight
07 Aug - 15:14:26 10° W 15:23:25 29° SW 15:29:01 10° SSE daylight
08 Aug - 04:55:41 10° S 05:08:08 25° SE 05:22:45 10° E visible
08 Aug - 07:05:14 10° SW 07:23:50 55° SSE 07:40:47 10° E daylight
08 Aug - 09:20:26 10° WSW 09:40:38 81° S 09:54:50 10° E daylight
08 Aug - 11:38:44 10° W 11:56:48 83° S 12:07:17 10° ESE daylight
08 Aug - 13:57:23 10° W 14:10:28 49° SSW 14:17:51 10° SE daylight
08 Aug - 16:19:25 10° WSW 16:21:12 10° SW 16:22:15 10° SW daylight
09 Aug - 03:47:36 10° SSE 03:53:09 13° SE 04:01:25 10° ESE visible
09 Aug - 05:51:41 10° SSW 06:07:59 42° SE 06:25:19 10° E daylight
09 Aug - 08:04:34 10° WSW 08:24:28 72° SSE 08:40:48 10° E daylight
09 Aug - 10:21:39 10° W 10:41:25 86° S 10:54:09 10° E daylight
09 Aug - 12:40:20 10° W 12:56:40 69° SSW 13:05:51 10° ESE daylight
09 Aug - 14:59:24 10° W 15:08:45 26° SW 15:14:38 10° S daylight
10 Aug - 04:39:40 10° S 04:52:39 28° SE 05:08:21 10° E visible
10 Aug - 06:49:47 10° SW 07:08:15 60° SSE 07:26:06 10° ENE daylight
10 Aug - 09:05:02 10° WSW 09:25:24 84° S 09:40:28 10° E daylight
10 Aug - 11:23:10 10° W 11:41:55 81° SSW 11:53:11 10° ESE daylight
10 Aug - 13:41:58 10° W 13:55:43 45° SW 14:03:40 10° SE daylight
11 Aug - 03:30:18 10° SSE 03:37:51 16° SE 03:48:20 10° E visible
11 Aug - 05:36:13 10° SSW 05:52:22 46° SE 06:10:30 10° E visible
11 Aug - 07:49:15 10° WSW 08:09:01 76° SSE 08:26:14 10° E daylight
11 Aug - 10:06:12 10° W 10:26:20 86° S 10:39:55 10° E daylight
11 Aug - 12:24:45 10° W 12:41:48 65° SSW 12:51:43 10° SE daylight
11 Aug - 14:44:23 10° W 14:53:56 24° SW 15:00:05 10° S daylight
12 Aug - 04:24:01 10° SSW 04:37:06 32° SE 04:53:36 10° E visible
12 Aug - 06:34:32 10° SW 06:52:39 65° SSE 07:11:18 10° ENE daylight
12 Aug - 08:49:44 10° W 09:10:05 85° S 09:26:02 10° E daylight
12 Aug - 11:07:38 10° W 11:26:56 78° SSW 11:39:00 10° ESE daylight
12 Aug - 13:26:30 10° W 13:40:49 42° SW 13:49:21 10° SSE daylight
